RH
51 55 57 62 74 91 101 100 96 93 92 92 92 93 93 93 94 95 98 100 102 104 100 88 77 76 77 76 76 76 75 76 75 73 71 67 62 57 54 52 52 52 53 53 51 46 39 31 25 22 19 18 17 16 15 15 16 16 16 16 16 16 17 17 17 17 17 19 20 21 23 27 33 39 48 57 63 67 69 69 69 68 67 66 64
53 56 61 74 90 100 101 99 97 95 93 94 98 99 95 93 94 96 100 103 104 105 99 84 77 79 79 78 80 81 81 81 79 76 73 68 62 58 55 54 54 54 55 54 52 46 38 30 24 21 19 17 17 16 15 15 15 15 16 16 16 17 17 17 18 18 17 19 20 21 21 23 27 30 36 44 51 58 63 65 67 67 67 66 65
58 63 74 89 99 101 100 100 100 98 98 101 104 102 97 96 98 99 102 104 105 104 93 79 77 82 83 80 80 82 84 84 82 79 74 68 63 59 56 56 55 56 57 56 52 45 35 28 23 19 18 17 16 16 16 15 15 15 15 15 16 16 17 17 18 18 18 18 20 21 21 21 23 25 27 33 39 47 53 58 60 61 62 61 60
68 77 89 99 101 100 100 100 100 100 101 104 104 100 98 99 100 101 102 104 106 98 82 75 81 87 87 86 84 85 86 86 84 80 74 68 63 59 57 57 57 57 58 57 51 42 33 26 21 18 17 17 16 16 16 15 15 15 14 15 15 15 16 17 17 18 19 18 19 21 22 22 21 21 22 25 29 34 41 46 51 53 54 55 53
82 91 98 101 101 102 102 101 101 101 102 102 98 97 99 101 101 101 102 104 104 91 75 75 86 90 91 94 94 90 88 88 86 81 75 68 62 58 58 57 58 58 59 57 50 39 30 23 19 17 16 16 16 15 15 15 15 14 14 14 14 15 16 16 17 18 18 19 18 19 21 23 22 21 21 22 24 26 29 33 37 40 43 46 47
94 99 100 100 101 103 103 102 102 103 102 98 94 96 100 101 101 101 103 105 104 90 75 77 88 93 93 96 99 97 90 88 88 83 75 68 61 58 58 57 58 59 59 56 47 36 27 21 18 16 15 15 15 14 14 14 14 14 14 14 14 14 15 15 16 17 18 19 19 19 20 22 23 23 22 21 21 22 24 26 28 30 31 34 37
99 100 100 101 101 101 101 102 102 102 100 95 92 96 100 101 101 101 103 107 105 94 80 79 88 94 95 98 104 104 97 91 89 84 75 66 60 57 58 58 58 59 58 53 43 32 24 20 17 15 15 15 14 14 14 13 14 13 13 13 13 13 14 14 15 16 17 18 19 19 20 21 23 24 24 23 23 21 21 22 23 25 26 27 28
100 100 101 101 101 101 100 101 102 101 98 94 94 98 100 100 101 101 104 107 105 98 88 82 85 92 99 102 104 108 105 97 91 84 74 66 60 57 57 57 57 58 56 49 38 28 22 18 15 15 15 14 14 14 13 13 13 13 13 13 13 13 13 14 14 15 16 17 18 19 19 20 22 23 23 24 24 23 22 21 20 21 21 23 25
99 100 101 101 101 101 100 101 101 100 98 97 98 100 100 100 102 104 106 105 101 96 90 84 83 90 101 103 102 106 106 98 92 85 73 64 59 56 55 54 55 56 54 45 33 24 19 16 15 14 14 14 13 13 13 13 13 13 13 13 13 13 13 13 14 14 15 16 17 18 19 20 22 22 23 23 24 24 23 22 21 19 18 18 20
100 100 101 102 101 100 100 101 101 101 101 101 100 100 101 103 105 108 108 103 95 93 90 83 80 90 102 105 101 103 105 102 95 84 72 64 58 54 53 52 53 54 50 40 28 21 17 15 14 14 13 13 13 13 13 13 13 13 13 13 13 13 13 13 13 14 14 15 16 16 17 19 21 22 22 23 23 23 23 23 22 20 18 17 16
100 100 102 101 100 100 101 101 101 102 103 101 100 101 104 107 107 108 107 101 96 96 91 83 84 95 104 106 104 102 105 105 97 82 71 63 55 51 51 51 51 51 45 33 24 18 15 14 13 13 13 13 13 13 13 13 13 13 13 13 13 13 13 13 13 13 14 14 15 15 16 18 19 21 22 22 22 21 21 22 22 20 19 17 16
100 101 102 101 101 100 100 102 103 104 103 101 101 104 107 107 108 111 110 106 105 105 95 89 96 103 103 103 104 103 102 100 94 81 68 59 52 49 49 49 51 48 38 27 20 16 14 13 13 13 12 12 12 12 13 13 13 13 13 13 13 13 13 13 13 13 13 13 14 14 15 16 17 18 20 21 21 20 20 20 20 20 19 17 16
100 101 102 102 101 101 103 106 105 104 102 100 101 104 106 106 108 111 111 109 111 109 100 96 102 104 101 101 102 104 105 100 90 78 65 55 50 47 46 48 49 43 31 22 17 14 13 13 12 12 12 12 12 12 12 13 13 14 14 13 13 13 13 13 13 13 13 14 14 14 14 16 17 17 19 20 21 20 20 20 20 19 18 17 17
100 102 104 102 101 104 108 107 103 101 101 101 100 101 103 104 103 104 105 104 107 108 101 97 100 100 102 104 101 101 103 95 82 71 61 53 48 46 46 47 45 36 25 18 15 14 13 12 11 11 11 11 11 11 12 12 13 13 13 13 13 13 13 13 13 13 13 14 14 14 15 16 17 17 17 19 20 20 20 19 18 18 18 17 16
100 101 102 100 101 106 106 102 100 100 100 100 101 100 101 102 100 101 102 103 109 113 104 95 97 100 101 102 101 99 95 84 72 63 56 50 47 45 46 45 38 27 19 15 14 13 12 12 11 11 11 11 11 11 11 12 12 13 13 13 13 13 13 13 13 13 14 14 14 14 15 15 16 16 16 17 18 18 18 18 16 16 17 16 15
101 100 100 102 104 104 100 98 99 100 100 100 100 100 101 102 101 101 101 103 110 113 103 94 96 101 101 100 100 96 85 73 64 57 52 48 45 45 45 41 30 20 15 13 13 12 12 11 11 11 10 10 10 10 11 11 12 12 12 13 13 13 13 13 13 14 14 13 14 14 14 15 15 16 15 15 15 15 15 16 15 15 16 16 15
100 100 102 104 104 100 98 99 100 100 100 100 100 101 101 102 101 101 101 106 107 101 95 94 96 98 98 96 93 85 75 66 59 53 49 46 45 45 43 33 21 15 13 12 11 12 11 10 10 10 10 10 10 10 10 10 11 11 12 12 13 13 13 13 13 14 14 13 13 13 14 14 14 15 14 14 14 13 13 14 14 15 15 15 15
100 102 104 104 101 98 99 100 101 100 100 100 100 100 101 101 100 100 103 108 104 95 93 97 99 98 96 90 81 73 66 60 55 51 47 45 45 43 35 23 15 13 12 11 11 11 10 10 10 9 9 9 9 9 10 10 10 10 11 12 12 12 12 12 13 14 14 13 13 13 14 14 14 14 14 13 13 13 13 14 14 14 14 14 14
102 104 104 103 101 101 100 100 101 100 100 102 101 100 100 100 99 103 107 105 98 94 95 98 99 98 90 78 69 65 61 56 51 48 45 44 43 37 25 16 13 12 11 11 11 10 9 9 9 9 9 9 9 9 9 9 10 10 10 11 11 11 11 12 13 13 13 13 13 13 14 14 14 14 13 13 13 13 13 14 13 13 13 13 13
102 102 102 101 101 102 100 100 101 101 101 102 102 101 101 99 101 109 111 103 96 96 95 93 93 89 78 69 65 60 56 52 48 45 44 44 38 27 16 12 11 10 10 10 9 9 9 9 8 8 8 8 9 9 9 9 9 9 9 10 10 10 11 11 12 12 13 13 13 14 14 14 14 14 14 14 14 13 14 14 14 14 14 13 14
102 102 102 101 101 101 100 101 102 102 101 101 101 101 100 100 103 109 107 99 95 96 93 89 85 78 70 66 62 56 52 48 45 44 44 38 28 17 12 11 10 10 10 9 9 9 8 8 8 8 8 8 9 9 9 9 9 9 9 9 9 10 10 10 11 12 12 13 13 13 14 14 14 14 15 14 14 14 14 14 14 14 14 14 14
102 103 102 101 101 101 102 103 103 103 102 102 101 101 101 102 104 103 97 92 89 90 89 83 77 72 68 63 57 51 47 44 43 43 38 28 17 12 11 10 9 9 9 8 8 8 8 8 8 7 8 8 8 8 9 9 9 9 9 9 9 9 10 10 10 11 11 12 13 13 14 14 14 14 14 14 15 14 15 15 14 14 14 14 14
101 102 103 104 104 103 103 104 104 102 102 101 100 102 105 105 101 95 90 88 87 85 82 77 73 70 65 58 51 47 44 42 41 37 27 17 12 11 10 9 9 9 8 8 8 8 7 8 7 7 8 8 8 8 8 8 9 9 9 9 9 9 9 9 10 10 11 12 12 13 14 14 14 14 14 14 15 15 15 15 14 14 15 14 14
103 101 102 105 107 105 103 103 101 100 100 102 103 104 104 99 92 86 86 87 86 82 77 74 71 66 59 51 47 43 42 41 36 26 16 11 10 10 9 8 8 8 8 7 8 7 7 7 7 7 7 7 8 8 8 8 9 8 8 9 9 8 9 9 9 10 10 11 11 12 13 14 14 14 14 14 15 15 15 15 15 15 15 14 14
104 101 100 102 103 103 102 101 101 103 105 104 101 99 95 91 89 88 87 86 83 80 76 72 66 58 51 47 44 42 41 35 25 15 11 10 9 8 8 8 8 8 8 8 7 7 7 7 7 7 7 7 7 8 8 8 8 8 9 9 8 8 9 8 9 9 10 10 11 12 12 13 14 14 14 14 15 15 15 15 15 15 15 14 14
101 101 100 102 102 103 103 104 106 107 105 99 94 91 89 89 92 92 89 85 82 78 73 65 56 50 46 43 42 41 35 24 15 11 10 9 8 8 7 7 7 7 7 7 7 7 7 7 7 7 7 7 7 7 8 8 8 8 8 8 8 9 8 8 9 9 9 10 10 10 11 12 13 14 14 15 15 16 16 16 16 16 15 15 14
102 102 102 103 105 107 108 107 104 99 95 92 92 92 90 90 91 91 88 84 78 70 62 55 49 45 43 42 40 33 22 14 10 10 9 8 8 8 7 7 7 7 7 7 7 7 7 7 7 7 7 7 7 7 7 8 8 8 8 8 9 8 8 8 9 9 9 10 10 10 11 11 12 13 14 15 16 16 16 16 16 16 16 15 14
105 104 106 108 108 107 104 100 97 96 94 94 94 94 94 94 93 89 83 76 67 59 52 47 44 43 42 38 30 20 13 11 10 9 8 8 8 7 7 7 7 7 7 7 7 7 7 7 7 7 7 7 7 7 7 7 7 8 8 8 8 8 8 9 8 9 9 10 10 10 11 11 11 12 13 15 16 17 16 16 16 16 16 16 16
105 106 108 107 103 99 97 97 99 100 98 97 97 97 98 97 92 83 73 63 55 49 45 43 42 40 35 27 17 12 10 10 9 8 8 8 8 7 7 7 7 7 7 7 7 7 7 7 7 7 7 7 7 7 7 7 7 8 8 8 8 8 8 8 8 9 9 9 10 11 10 11 11 12 13 14 15 16 16 16 15 16 16 16 17
105 103 102 99 96 97 99 101 102 102 100 101 103 101 96 88 79 70 60 52 46 42 40 40 37 31 22 15 10 10 9 8 8 8 8 8 8 8 7 7 7 7 7 7 7 7 7 7 7 7 7 7 7 7 7 7 7 7 7 8 8 8 8 9 9 9 9 9 10 10 10 11 12 11 12 13 14 15 16 15 15 15 16 17 18
100 98 98 99 100 102 102 101 101 103 104 105 103 96 86 74 63 55 48 44 41 39 37 33 26 18 12 10 9 8 8 8 8 8 8 8 8 7 7 7 7 7 7 7 7 7 7 6 7 7 7 7 7 7 7 7 7 7 7 8 8 8 8 9 9 9 9 9 9 10 11 11 11 12 12 12 13 14 14 15 15 15 16 17 18
101 102 102 102 102 102 102 102 103 105 104 99 92 83 73 63 54 46 42 40 38 34 28 21 14 10 9 9 8 8 8 8 8 8 8 8 7 7 7 7 7 7 7 7 7 7 7 6 7 7 7 7 7 7 7 7 7 7 7 8 8 8 9 9 9 9 9 9 9 10 11 11 11 12 12 12 13 14 14 14 15 15 16 17 18
104 103 102 102 101 102 104 105 104 101 95 87 77 68 59 53 48 44 40 36 30 23 16 11 9 9 8 7 8 8 8 8 8 8 8 7 7 7 7 7 7 7 7 7 7 7 7 7 7 7 7 7 7 7 7 7 7 7 8 8 8 9 9 9 9 9 9 9 10 10 10 11 12 12 12 12 13 13 14 14 15 15 15 16 18
103 103 103 103 103 103 105 104 99 91 82 72 63 55 49 46 44 40 34 27 18 12 9 8 8 8 8 8 8 8 8 8 8 8 8 7 7 7 7 7 7 7 7 7 7 7 7 7 7 7 7 7 7 7 7 7 8 8 8 8 8 9 9 8 9 9 9 9 9 10 11 11 11 12 12 13 13 14 14 14 15 15 15 18 20
102 102 102 103 105 104 102 96 88 77 67 57 51 47 44 41 36 28 20 14 10 9 9 8 7 8 8 8 8 8 8 8 8 7 8 7 7 7 7 7 7 7 7 7 7 7 7 7 7 7 8 7 7 7 7 7 8 8 8 8 8 8 9 9 9 9 9 9 10 10 11 11 12 13 13 13 13 14 14 14 15 16 17 19 20
104 105 104 103 103 98 90 80 69 60 53 48 45 41 36 29 21 14 11 9 9 9 8 8 8 8 8 8 8 8 8 8 8 8 8 7 7 7 7 7 7 7 7 7 7 7 7 7 7 7 7 7 7 8 7 7 8 8 8 8 8 9 9 8 9 9 9 9 10 10 11 12 13 13 13 14 14 14 14 15 16 17 18 20 19
107 106 103 97 90 80 69 60 54 49 46 42 36 29 21 14 11 9 9 9 8 8 8 9 8 8 7 7 7 7 7 7 8 8 8 7 7 7 7 7 7 7 7 7 8 7 7 7 7 7 7 7 7 7 7 8 8 8 8 8 8 9 9 8 9 9 9 10 10 11 12 13 13 14 14 13 13 14 15 16 17 18 20 20 19
104 99 90 79 68 59 53 50 47 42 36 28 20 14 11 9 9 9 8 8 9 8 8 8 7 7 7 7 7 7 7 8 8 8 8 8 7 7 7 7 7 7 7 7 7 7 7 8 8 7 7 7 7 7 8 7 7 8 8 8 8 9 9 9 9 9 10 10 11 12 13 13 14 13 13 13 14 15 15 16 18 20 21 20 19
88 78 67 59 54 51 48 43 35 27 19 13 11 10 9 9 9 9 8 8 8 7 7 7 7 7 7 6 6 7 7 7 8 8 8 8 7 7 7 7 7 7 7 7 7 7 7 7 7 8 7 7 8 8 7 8 8 8 8 9 9 9 9 10 10 10 11 12 12 12 13 13 13 13 13 14 14 15 17 19 21 21 20 20 22
66 59 55 52 49 42 34 25 17 12 10 10 9 9 9 9 8 8 8 8 7 7 7 7 6 6 6 6 7 7 7 7 8 8 8 7 7 7 7 7 7 7 7 7 7 7 7 7 7 8 8 8 8 8 8 8 8 8 9 9 9 10 10 11 11 11 12 13 13 13 12 12 12 13 14 15 16 18 21 22 22 21 22 24 25
55 52 48 42 32 23 16 12 10 10 10 9 9 9 9 8 8 7 7 7 7 6 6 6 6 6 6 6 7 7 8 8 8 8 8 7 7 7 7 7 7 7 7 8 8 7 7 7 7 8 8 8 8 8 8 9 9 9 9 10 10 11 12 12 12 13 13 13 12 12 12 13 14 14 15 17 20 22 22 21 22 23 24 25 24
48 40 31 22 15 11 11 10 9 9 9 8 9 9 8 7 7 7 7 7 7 6 6 6 6 6 6 7 7 7 8 8 8 8 8 7 7 7 8 7 8 8 7 8 8 7 7 8 8 8 8 8 8 9 9 9 9 10 10 11 11 12 12 12 12 12 12 12 12 13 14 15 15 17 19 22 22 22 22 22 24 25 24 23 22
29 20 14 11 10 10 10 10 9 9 8 8 8 7 7 7 7 7 7 7 6 6 6 6 6 7 7 7 7 8 8 9 8 8 8 7 7 8 7 7 8 8 7 7 8 8 8 8 8 8 9 9 9 9 9 9 10 11 11 12 12 12 12 12 12 12 12 13 15 16 16 18 19 21 22 23 22 22 23 24 25 24 23 22 24
13 11 10 10 10 11 11 11 10 9 8 8 8 7 7 8 7 7 7 7 7 7 7 6 6 7 7 7 8 8 9 9 9 8 8 8 7 7 8 8 8 8 8 8 8 8 8 8 8 9 9 9 9 10 10 11 11 12 12 12 12 12 12 12 12 13 15 16 17 19 20 22 23 22 22 22 23 24 25 24 23 23 23 26 34
10 11 11 12 14 15 14 12 10 9 8 8 8 7 8 8 8 8 8 7 7 7 7 7 7 7 7 8 9 9 8 9 9 8 8 7 7 8 8 8 8 8 8 8 8 8 9 9 9 9 10 10 10 11 11 12 12 12 12 12 12 12 13 14 15 16 17 18 20 22 23 23 22 22 23 24 24 24 24 23 23 26 32 42 53
12 14 16 18 19 17 14 11 9 8 8 8 8 8 8 8 8 8 8 8 7 7 7 7 7 7 7 8 9 9 9 9 9 8 8 8 8 8 8 8 8 8 8 8 9 9 9 10 10 10 11 11 11 12 12 12 12 12 12 13 14 15 16 17 17 18 19 21 22 23 22 23 24 25 25 25 24 23 23 25 30 39 51 60 66
18 20 21 21 18 15 11 9 8 8 8 8 9 9 9 9 8 8 8 8 7 7 7 8 8 7 8 9 9 9 9 9 8 8 8 8 8 8 9 8 9 9 9 9 10 10 10 10 11 11 12 12 12 12 12 12 13 13 14 15 16 17 18 19 19 20 21 22 23 23 24 25 26 25 24 24 24 25 29 37 48 59 66 69 71
22 22 21 19 15 12 10 9 9 9 9 9 9 9 9 9 9 9 8 8 7 8 8 8 8 8 9 9 9 9 9 9 9 9 9 8 9 9 9 9 9 10 10 10 10 10 11 12 12 12 12 12 12 12 13 14 15 16 17 18 18 19 21 21 21 22 23 23 24 25 26 25 25 24 24 25 28 35 45 57 65 69 70 71 76
21 20 18 14 11 10 9 9 9 10 9 10 9 9 9 9 9 9 8 8 8 8 8 8 8 9 10 10 10 10 10 10 9 9 9 9 9 9 9 10 10 10 10 11 11 12 12 12 12 12 12 12 12 14 15 16 17 18 19 20 21 22 22 22 22 23 25 26 26 26 25 25 25 25 28 34 43 54 63 68 69 69 73 80 87
19 17 13 11 10 10 9 9 10 10 10 10 9 9 9 10 9 8 8 8 8 8 8 8 9 9 10 10 10 10 10 10 10 10 10 10 10 10 10 10 11 11 11 12 13 13 13 12 12 12 13 14 15 17 17 18 20 20 21 22 22 23 23 23 24 25 26 26 25 25 25 26 28 34 42 53 62 67 68 68 70 75 83 89 92
15 12 11 10 10 10 9 10 11 10 10 10 9 9 10 9 8 8 8 8 8 8 8 9 10 10 10 11 10 10 11 11 10 10 11 10 10 11 11 11 12 13 13 13 13 13 13 12 13 14 15 17 18 19 19 21 21 22 22 23 24 24 24 25 25 26 26 26 26 27 29 34 42 53 62 68 70 69 69 73 79 86 91 93 93
Wind_Speed
73 73 73 74 75 78 82 86 89 92 94 95 96 97 97 98 100 102 104 106 108 111 113 115 117 118 120 120 121 122 124 126 129 130 132 133 134 135 135 136 136 137 136 135 134 131 128 124 120 115 110 105 101 96 91 86 81 77 74 71 69 68 67 67 68 69 69 70 71 71 71 72 73 75 76 78 79 80 82 82 83 84 85 86 88
74 74 74 75 77 81 86 90 92 94 96 96 96 96 97 99 101 103 105 107 109 111 114 116 117 119 121 122 123 124 126 128 130 131 133 134 135 136 136 137 137 137 137 136 134 132 129 125 121 116 111 105 100 95 91 86 82 78 74 72 70 69 68 67 67 68 69 69 70 72 72 72 73 74 75 77 78 80 81 82 83 84 86 87 88
75 76 76 77 80 85 89 92 94 96 96 96 96 97 99 101 102 104 107 109 111 113 115 117 118 120 122 124 124 126 127 130 131 133 134 135 136 137 137 138 138 138 138 137 135 132 129 125 121 116 110 105 100 94 90 86 82 79 76 73 71 69 68 67 67 68 68 68 69 71 72 72 73 74 74 75 77 78 80 82 83 84 86 87 87
77 77 78 80 85 88 91 93 95 96 96 96 97 99 101 102 104 106 108 110 112 114 117 119 120 121 123 125 126 127 129 131 133 134 135 136 137 138 138 138 139 139 139 137 135 133 130 126 121 116 110 104 99 93 88 85 82 80 77 74 72 70 68 67 67 67 68 68 68 69 71 72 73 73 74 74 76 77 78 80 82 83 85 86 87
79 79 81 85 88 91 93 95 96 96 96 97 99 101 102 103 105 107 109 111 113 116 119 121 121 122 125 127 128 129 131 133 134 135 136 137 138 139 139 140 140 140 139 138 136 133 130 126 121 116 110 104 98 92 87 83 81 80 78 75 73 71 69 68 67 66 67 68 68 68 69 70 72 73 73 74 74 75 77 78 79 81 82 83 85
80 81 84 88 91 93 95 96 96 96 97 99 101 102 102 104 106 108 110 113 115 117 120 122 123 124 126 129 130 132 133 135 136 136 137 138 139 139 140 141 141 141 140 138 136 133 129 125 121 115 110 104 98 92 86 82 80 79 77 75 74 71 70 68 67 66 66 67 68 68 68 69 70 71 72 73 74 74 75 76 77 78 79 80 81
81 84 87 91 93 95 96 96 96 97 99 101 103 103 103 105 107 110 112 114 117 119 122 124 125 126 129 131 132 134 135 137 138 138 138 139 139 140 141 142 142 142 140 138 135 132 129 125 120 115 109 103 97 91 86 82 80 78 77 75 74 72 70 69 67 66 66 66 67 67 67 67 68 70 71 72 73 73 74 74 75 76 77 78 79
84 87 90 92 93 94 95 96 98 99 101 103 104 103 104 106 109 111 114 116 118 121 124 126 128 129 131 133 134 136 137 138 139 139 139 140 140 141 142 143 143 142 141 138 135 132 128 124 119 113 108 102 96 90 85 82 79 78 76 75 73 72 70 69 68 67 66 66 66 66 66 67 67 68 69 70 71 72 73 73 74 74 75 75 76
87 89 90 92 93 94 95 97 100 102 104 104 104 103 105 108 111 113 116 118 120 123 125 128 130 132 134 135 136 138 139 140 140 140 140 141 141 142 143 143 144 143 141 138 134 131 127 122 117 112 106 100 95 90 85 81 79 77 76 74 73 71 70 69 68 67 66 66 65 65 66 66 66 67 68 68 69 70 71 72 73 73 73 73 73
88 89 90 92 93 95 97 100 102 104 104 104 103 104 107 110 113 115 117 119 122 125 127 130 132 134 136 137 138 139 141 141 142 141 141 142 142 143 144 144 144 143 140 137 133 129 125 120 115 110 104 99 94 89 84 81 78 76 74 73 72 71 70 69 68 67 66 66 65 65 65 65 66 66 67 67 68 68 69 70 71 72 72 72 72
88 89 91 93 95 98 100 102 104 104 103 103 104 106 109 112 115 117 119 122 124 127 130 132 133 135 137 138 139 141 142 143 143 142 142 143 143 144 144 145 145 143 140 136 132 128 123 118 112 107 102 97 92 88 84 80 77 75 73 72 72 71 69 68 67 67 66 65 65 64 64 64 65 65 66 67 67 67 68 68 69 70 71 71 71
90 92 94 96 99 101 103 104 104 103 103 104 106 108 111 114 117 119 121 124 127 130 132 133 135 137 138 139 140 142 143 144 144 143 143 144 144 144 145 145 145 143 139 135 131 126 121 115 110 105 100 95 90 86 83 79 76 74 73 71 71 70 69 68 67 66 66 65 65 64 63 64 64 64 65 66 66 66 67 67 68 68 69 69 69
94 95 97 98 101 103 105 104 103 103 104 106 108 111 114 116 119 121 123 126 129 132 134 135 137 138 139 140 141 143 144 145 145 144 144 145 145 146 146 145 144 141 137 134 129 123 118 112 107 103 98 93 89 85 81 78 75 73 72 71 70 69 68 67 66 66 65 65 64 63 63 63 64 64 64 65 66 66 66 66 67 67 67 67 66
97 97 98 100 103 106 106 104 104 105 107 109 111 114 116 118 121 123 126 129 132 134 136 138 139 139 140 141 142 144 145 145 145 145 146 146 147 147 147 146 143 139 135 131 126 121 115 110 104 100 96 91 88 84 80 77 75 73 72 70 69 68 67 66 65 65 64 64 63 62 62 62 63 64 64 64 65 65 65 66 66 65 65 65 64
98 98 100 103 106 107 106 106 107 109 110 112 114 116 119 121 123 126 129 132 134 136 139 140 140 140 141 142 143 145 146 146 146 146 147 147 148 148 148 145 141 137 132 127 122 118 112 107 102 98 94 90 86 83 79 76 74 73 71 70 69 67 66 65 64 63 63 62 61 61 61 61 62 64 64 64 64 64 65 65 64 63 63 62 61
98 100 103 106 107 107 107 108 110 112 114 115 117 119 121 123 126 129 132 134 137 139 141 141 141 141 142 143 144 145 146 146 147 147 148 149 149 149 148 144 139 134 129 123 118 114 109 104 100 96 92 88 85 81 78 75 74 72 71 69 68 67 65 64 62 62 62 61 61 60 60 60 61 63 63 63 63 63 63 63 62 61 60 60 59
101 104 106 108 108 108 110 112 114 115 116 117 119 121 123 125 129 132 135 137 140 141 141 141 141 142 143 144 145 146 146 147 148 148 149 150 150 149 146 142 136 131 125 119 114 110 106 101 97 93 90 87 83 80 77 74 73 71 70 69 67 66 65 63 61 61 61 60 60 59 59 60 61 61 62 62 62 62 62 61 60 59 58 58 57
104 107 109 109 110 111 112 114 116 117 118 119 121 123 125 128 132 135 138 140 141 141 141 141 141 143 144 145 146 146 147 148 149 150 151 151 151 149 144 138 133 127 121 115 111 107 103 99 94 90 87 84 82 78 76 73 71 70 69 68 67 66 64 62 61 61 60 60 59 58 58 59 59 60 61 60 60 60 59 59 58 57 56 55 54
107 109 110 111 112 113 115 117 118 119 121 123 124 126 129 132 135 138 140 142 142 141 140 141 142 144 145 145 146 147 147 148 150 151 152 152 150 146 141 135 128 122 117 112 108 104 100 96 91 87 84 82 80 77 74 72 70 69 67 66 66 65 63 62 61 60 59 59 57 57 57 57 57 59 59 59 58 58 57 57 56 55 54 53 52
109 111 112 113 114 116 117 119 121 122 124 126 128 130 133 135 138 140 141 141 140 139 140 141 143 144 145 146 147 147 148 149 150 151 152 152 148 143 136 130 123 118 113 109 105 101 97 93 89 85 82 79 77 75 73 70 69 68 66 65 64 63 62 61 60 59 58 57 56 55 55 55 55 56 56 56 56 56 55 55 54 54 52 51 50
111 112 113 115 117 118 120 121 123 125 127 129 131 134 136 138 140 141 140 139 138 139 140 142 144 145 146 146 147 148 149 150 151 152 152 149 144 138 132 125 119 113 110 106 102 97 93 90 87 83 80 77 75 73 71 69 67 66 65 64 62 61 60 60 59 58 57 56 55 54 53 53 53 53 54 54 54 54 53 52 52 52 51 50 50
113 115 116 118 120 121 123 124 126 128 129 131 133 135 138 139 140 139 137 137 138 139 141 143 144 145 146 147 149 150 150 151 152 151 149 145 139 133 126 120 115 110 106 102 98 94 90 87 84 81 78 76 73 71 70 68 66 64 63 62 61 60 59 58 58 57 56 55 54 53 52 51 51 52 52 52 52 52 51 51 51 50 50 49 48
116 118 120 121 123 124 125 126 128 129 131 133 135 137 138 138 136 135 135 137 139 141 142 144 145 146 148 149 150 151 151 152 152 149 145 139 133 127 121 116 111 107 103 99 95 91 88 85 82 79 76 74 72 70 68 66 65 63 62 61 59 58 57 56 56 56 55 54 53 52 51 50 50 50 50 50 50 49 49 49 49 49 49 48 47
117 119 121 123 124 125 126 127 128 130 132 133 135 135 135 134 133 134 136 139 140 142 143 145 146 147 149 151 152 152 153 152 150 145 139 133 127 121 116 112 108 104 100 95 91 88 85 82 80 77 75 72 70 68 66 65 64 62 61 59 58 57 56 55 54 54 53 53 52 51 50 49 49 49 49 48 48 48 48 48 48 48 48 47 45
116 118 120 121 123 124 125 126 128 130 131 131 131 131 131 132 134 136 138 140 142 143 144 146 147 149 151 152 153 153 153 150 145 139 133 127 121 116 112 108 104 100 96 92 88 85 82 79 77 75 72 70 68 66 64 63 62 61 60 58 57 56 55 55 54 53 52 51 50 50 49 48 48 48 47 46 46 46 47 47 47 47 47 46 44
114 116 118 120 121 123 125 126 127 128 127 127 128 129 132 134 136 138 140 141 143 144 146 147 149 151 152 152 153 152 150 145 139 133 127 121 116 112 109 105 100 96 92 88 85 82 79 77 74 72 70 68 66 64 63 62 61 60 58 57 55 54 54 53 53 52 51 50 49 48 47 47 46 46 46 45 44 45 45 46 45 45 45 44 43
112 114 116 118 121 122 124 124 124 125 126 127 130 132 135 137 138 140 141 142 144 146 148 149 151 152 152 153 152 149 144 139 132 127 121 117 113 109 105 101 96 92 88 84 81 78 76 74 72 70 68 66 64 62 61 60 60 58 57 55 54 53 52 52 51 51 50 49 48 47 46 45 45 44 44 43 43 44 44 44 44 44 43 43 42
112 114 116 118 120 120 121 122 124 126 129 131 133 135 137 139 140 141 143 144 146 148 150 151 152 152 152 151 148 143 138 132 126 121 117 113 110 106 102 97 93 88 85 81 77 75 73 71 69 67 66 64 62 61 60 59 58 57 55 54 53 51 50 50 50 49 48 47 46 45 45 44 43 42 42 41 41 43 43 43 43 42 41 41 40
113 115 116 117 118 119 121 124 127 130 132 134 136 137 139 140 142 144 145 147 148 150 151 151 152 152 150 146 141 135 130 125 120 116 113 109 105 101 97 93 89 85 82 78 75 72 69 67 66 65 64 62 61 59 58 57 56 55 53 52 51 49 48 48 47 47 47 46 45 44 43 43 42 41 41 41 41 41 42 42 41 40 39 39 39
114 115 116 118 120 123 126 128 130 132 135 136 138 140 141 143 144 146 148 149 150 151 151 152 151 148 144 139 133 127 122 118 115 112 108 104 100 97 93 89 86 82 79 76 73 70 67 65 63 62 61 60 58 57 56 55 54 53 51 50 49 48 47 46 46 46 45 44 43 43 42 41 41 40 40 39 39 39 39 39 39 38 37 37 36
114 116 118 121 124 127 129 131 133 135 137 138 140 142 144 146 148 149 150 151 152 152 152 150 147 142 136 130 125 120 116 113 110 106 102 99 95 92 88 85 82 79 76 74 71 68 65 63 61 59 58 57 56 55 54 53 52 50 49 48 47 46 45 45 44 44 43 42 41 41 40 40 39 39 38 38 37 37 37 37 36 36 35 35 34
117 120 123 125 128 130 132 134 135 137 139 141 143 145 147 150 151 152 152 153 152 151 149 145 139 133 127 122 118 115 112 108 104 101 97 93 90 87 84 81 78 76 73 71 68 66 64 61 59 57 56 54 54 53 52 51 50 48 47 45 45 44 43 43 43 42 41 40 39 39 38 38 37 36 36 35 35 35 35 34 34 33 33 32 31
122 124 126 128 130 132 134 136 138 140 142 144 146 148 150 152 153 154 154 153 151 147 142 136 130 125 121 117 113 110 107 103 99 95 92 89 86 83 80 77 75 73 70 68 65 63 61 59 57 55 54 52 52 51 50 49 47 46 44 43 42 42 41 41 40 40 39 38 38 37 36 35 34 33 33 33 32 32 32 32 31 31 30 29 27
124 127 129 131 133 135 137 139 141 143 146 148 149 151 152 152 153 153 152 149 145 139 133 127 122 119 116 112 109 105 101 98 94 91 88 85 82 79 76 74 72 70 67 65 63 60 58 56 55 53 52 50 49 48 47 46 44 43 42 41 40 40 39 38 38 37 36 36 35 35 34 33 32 31 30 30 30 30 29 30 29 28 27 25 25
127 129 131 134 136 138 141 143 145 147 149 150 151 152 152 152 151 149 145 140 135 130 125 121 117 114 111 108 104 100 96 93 89 86 83 81 78 75 72 70 68 66 64 62 60 58 55 53 52 51 50 49 47 46 44 43 42 41 40 39 38 38 37 36 35 35 34 33 33 32 31 30 29 29 28 28 27 27 27 28 27 25 24 24 24
130 133 135 137 140 142 144 147 148 150 151 152 152 152 151 149 145 140 135 130 126 122 119 116 112 109 105 102 99 95 92 88 85 82 80 77 74 71 69 67 65 63 61 59 57 55 53 51 50 49 48 46 45 43 42 41 39 38 37 36 36 35 35 34 34 33 32 31 29 28 28 27 27 27 26 25 25 25 25 25 24 24 23 23 22
134 137 139 142 144 146 148 149 150 151 152 152 151 148 145 140 136 131 126 123 119 116 114 111 107 104 99 96 93 90 87 84 81 78 76 74 71 68 66 64 62 59 57 55 53 52 51 49 48 46 45 44 42 40 39 38 37 36 35 34 33 33 33 32 32 30 29 28 26 25 24 24 24 24 24 23 23 23 23 23 23 22 21 19 19
138 141 143 145 147 149 150 151 152 152 151 148 144 140 135 131 127 123 120 117 114 111 108 104 101 98 94 91 88 84 82 79 76 74 72 70 68 65 63 61 59 56 54 51 50 48 47 46 45 44 43 42 40 38 36 35 34 33 32 31 31 30 30 29 29 27 26 24 23 22 22 22 22 23 23 22 22 22 21 21 20 19 18 18 18
142 145 147 148 150 151 152 152 150 148 144 139 135 130 127 123 120 117 114 111 108 104 101 98 95 92 89 86 83 80 77 75 72 70 68 66 64 62 60 58 56 54 52 49 47 45 44 42 41 40 40 39 37 36 34 32 31 30 29 28 28 27 27 26 25 24 22 21 20 20 20 21 21 21 21 20 20 19 19 18 17 17 17 18 18
146 148 149 151 151 151 150 147 143 138 134 130 127 124 121 118 115 112 108 105 102 98 95 92 89 86 84 81 79 76 74 71 69 67 64 62 60 58 56 54 53 51 49 47 45 43 42 40 38 37 36 35 34 32 31 29 28 27 26 26 25 24 23 22 21 20 19 19 18 19 19 19 19 18 18 18 17 17 17 16 17 17 17 17 17
149 150 151 150 148 145 141 137 133 129 126 124 121 118 115 112 109 105 102 99 96 93 89 86 84 81 79 77 75 72 70 68 66 63 61 58 56 55 53 51 49 47 45 44 43 41 39 37 35 34 33 31 30 29 28 27 25 25 24 23 23 21 20 18 18 17 17 17 16 16 16 16 16 16 16 16 16 16 16 16 16 16 16 15 15
150 149 147 144 139 135 132 129 126 124 121 118 114 111 109 105 102 99 96 93 90 87 84 81 79 76 75 73 71 68 66 64 62 60 57 55 53 51 49 47 46 44 42 41 40 38 36 34 32 31 30 28 27 26 25 24 23 23 22 21 19 18 17 16 15 16 15 15 14 14 14 14 14 15 15 15 15 15 16 16 15 14 14 14 14
146 142 137 133 130 127 125 123 121 118 115 111 108 105 102 99 97 94 91 88 85 82 80 77 75 72 70 69 67 64 62 60 59 56 54 52 49 48 46 44 43 41 39 37 36 35 33 31 29 28 26 25 24 23 23 22 21 20 19 17 16 15 14 14 14 14 13 12 12 12 13 13 14 14 14 14 15 15 14 14 14 14 14 13 13
135 131 128 125 123 122 120 118 115 112 109 105 102 99 96 94 91 88 86 83 80 78 76 74 71 69 67 64 62 60 58 56 55 53 50 48 46 45 43 42 40 38 36 34 32 31 29 27 26 24 23 22 22 21 21 20 18 17 15 14 13 12 12 12 12 12 12 11 11 12 12 13 13 13 14 14 14 14 14 14 14 14 14 14 16
126 124 122 120 118 117 115 113 110 106 103 99 96 93 91 89 86 84 82 79 77 74 72 69 67 65 63 60 58 56 54 52 51 49 47 45 43 42 40 38 36 34 32 31 29 28 26 24 22 21 20 20 20 19 18 16 14 13 12 11 10 10 10 10 10 10 11 11 11 11 12 13 13 14 14 14 14 14 15 15 15 15 17 20 22
119 118 117 115 114 113 111 108 104 100 97 94 91 89 86 84 82 80 78 75 73 70 67 65 63 61 59 56 54 52 50 49 47 45 43 41 40 38 37 35 33 31 29 27 26 24 22 21 20 19 18 18 17 15 14 12 11 10 9 9 8 8 9 9 10 10 11 11 11 12 12 13 13 14 14 15 15 16 16 17 18 21 24 25 25
114 114 113 112 111 109 106 103 99 96 93 90 87 85 83 80 78 76 73 71 68 65 63 61 59 57 55 53 50 49 47 45 43 42 40 38 36 35 33 31 29 28 26 24 22 20 19 18 17 17 16 15 13 12 10 9 8 7 7 7 8 8 8 9 9 10 11 11 12 12 13 13 14 15 16 17 17 18 19 22 25 27 28 27 25
111 111 110 109 107 105 101 97 94 91 89 86 83 81 78 76 74 71 69 66 63 61 59 57 55 53 51 49 47 45 44 42 40 38 36 34 33 31 30 28 26 24 22 21 19 18 17 16 15 14 12 11 10 9 7 7 6 6 6 7 7 8 8 9 10 11 12 12 13 13 14 16 17 17 18 18 20 23 26 28 29 29 27 25 24
109 108 107 105 103 99 96 93 90 87 84 81 79 76 74 71 69 66 64 61 58 56 55 53 51 49 47 45 44 42 40 38 36 34 32 31 29 28 26 24 22 21 19 18 16 15 14 13 12 10 9 8 7 6 5 5 5 6 6 7 8 8 9 10 11 12 13 14 15 16 18 18 19 19 21 23 26 29 30 30 29 27 25 24 23
106 105 103 100 97 94 91 88 85 83 80 77 75 72 69 66 63 61 59 56 54 52 51 49 47 45 43 42 40 38 36 35 33 31 29 27 26 24 23 21 19 18 16 15 14 12 11 9 8 7 6 5 4 4 4 5 5 6 7 8 9 10 11 12 13 14 15 17 18 19 20 20 22 24 27 30 31 32 31 29 27 26 25 24 23
104 101 98 95 92 89 86 83 81 78 75 73 70 67 64 61 58 56 54 52 50 48 47 45 43 42 40 38 36 35 33 31 29 28 26 24 22 21 20 18 16 15 13 12 11 9 7 6 5 4 3 3 3 4 5 6 7 8 9 10 11 13 14 15 17 18 19 19 20 21 22 25 28 30 32 33 32 31 29 28 27 26 25 24 22
Wind_Direction
311 310 309 309 310 311 310 310 310 311 311 313 313 314 315 316 317 318 319 319 320 320 321 322 323 323 324 324 325 325 326 327 327 327 327 326 326 326 327 327 327 327 327 326 326 325 325 324 324 323 322 320 318 315 313 310 307 304 302 299 296 293 290 287 284 282 280 278 277 275 273 272 270 269 268 267 266 266 265 265 265 265 265 265 265
312 311 310 310 310 311 310 310 311 312 312 313 314 315 315 316 317 318 319 319 320 320 321 322 322 323 324 325 325 326 326 327 327 326 326 326 326 326 326 326 326 326 326 326 325 324 324 323 323 322 321 319 317 315 312 309 306 304 301 299 296 293 291 288 285 283 281 279 277 276 274 273 271 270 269 268 268 267 266 266 265 265 265 265 265
313 312 311 311 311 310 310 311 311 312 313 313 314 315 316 316 317 318 318 319 320 320 321 322 322 323 324 325 325 326 326 326 326 326 326 325 325 325 326 326 326 326 325 325 324 324 323 322 322 321 320 319 317 314 311 308 306 303 301 299 296 294 291 289 286 284 282 280 277 276 275 274 273 271 270 270 269 268 268 267 267 267 266 266 266
314 312 312 311 310 310 310 311 311 312 312 313 314 315 315 316 317 318 318 319 319 320 321 322 322 323 324 325 325 326 326 326 326 325 325 325 325 325 325 325 325 325 325 324 323 323 322 322 321 321 320 318 316 313 310 307 305 303 301 299 297 294 292 290 287 285 283 281 279 277 276 275 274 273 272 271 270 269 269 268 268 268 268 268 268
313 312 311 310 310 310 310 311 311 311 312 313 314 315 315 316 316 317 318 318 319 320 321 322 322 322 324 325 325 325 325 325 325 325 324 324 324 324 324 325 325 324 324 323 323 322 321 321 320 320 319 317 315 312 309 306 304 302 300 298 297 295 293 290 288 286 284 282 281 279 277 276 275 274 273 272 271 271 270 270 269 269 269 270 270
312 311 310 310 310 310 310 310 310 311 312 313 314 314 315 315 316 317 317 318 318 319 320 322 322 322 323 324 325 325 325 325 324 324 324 323 323 324 324 324 324 324 323 323 322 321 321 320 320 319 318 316 314 311 308 305 303 301 299 298 296 294 293 291 289 287 285 283 282 280 278 277 276 275 274 273 273 272 271 271 271 271 271 271 271
311 310 309 309 309 309 309 309 310 311 311 312 313 314 314 315 316 316 317 317 318 318 319 321 321 322 323 324 324 324 324 324 324 323 323 323 323 323 323 323 323 323 322 322 321 321 320 319 319 318 317 315 313 310 307 305 302 300 298 297 296 294 293 291 289 287 285 284 282 281 280 278 277 276 275 274 274 273 272 272 271 271 272 272 272
310 309 309 309 309 308 308 309 309 310 311 312 313 314 314 315 316 316 316 317 317 317 318 319 321 321 322 323 323 323 323 323 323 322 322 322 322 322 322 322 322 322 322 321 321 320 319 319 318 317 316 314 312 309 307 304 302 300 298 297 295 294 292 291 289 287 285 284 283 282 280 279 278 277 276 275 275 274 274 273 273 272 271 271 272
310 309 309 308 308 307 308 308 309 310 311 312 313 314 314 315 315 316 316 316 316 317 317 318 319 321 321 322 322 322 322 322 322 322 321 321 322 322 322 322 322 321 321 320 320 319 319 318 317 316 315 313 311 308 306 303 301 299 298 296 295 293 292 290 288 287 285 284 283 282 281 280 279 278 277 276 275 275 274 274 274 273 272 271 271
310 309 309 308 307 307 308 309 310 311 311 312 313 314 314 315 315 315 315 315 316 316 317 317 318 320 320 321 321 321 321 321 321 321 321 321 321 321 321 321 321 321 320 320 319 319 318 317 316 315 313 312 310 307 305 303 301 299 297 295 294 292 291 289 288 287 285 284 283 282 281 280 279 278 277 276 276 275 274 274 274 274 274 273 272
309 309 308 307 307 307 309 310 311 311 312 312 313 314 314 314 314 314 314 315 315 316 317 317 318 319 319 319 320 320 320 320 320 320 320 320 320 320 320 320 320 320 320 319 319 318 317 316 315 314 312 310 309 306 304 302 300 298 297 295 293 292 290 289 287 286 285 284 283 282 281 280 279 278 278 277 276 275 275 274 274 274 274 274 275
308 308 307 307 307 308 310 311 311 311 312 312 313 313 313 314 314 314 314 315 315 316 316 317 317 317 318 318 319 319 319 319 319 319 319 319 319 319 320 320 320 319 319 318 318 317 316 315 314 313 311 309 307 305 303 301 299 298 296 294 292 291 290 288 287 286 285 284 283 282 281 280 279 278 278 277 277 276 276 275 275 275 275 275 276
308 308 307 308 308 309 310 311 311 311 311 312 312 312 313 313 313 314 314 314 315 315 316 316 316 317 317 317 318 318 318 318 319 318 318 318 319 319 319 319 319 319 318 318 317 316 315 314 313 311 310 308 306 304 302 300 298 296 294 293 291 290 289 288 287 286 285 284 283 282 281 280 279 278 278 277 277 276 276 276 275 275 276 276 277
308 308 308 308 309 310 310 310 310 311 311 311 311 312 312 313 313 313 314 314 314 315 315 316 316 316 316 317 317 317 317 318 318 318 318 318 318 319 319 319 318 318 318 317 316 316 314 313 312 310 309 307 305 303 301 299 297 295 293 292 290 289 288 287 286 285 284 283 282 282 281 280 279 278 277 276 276 276 276 276 275 276 276 276 277
308 308 308 309 309 309 310 310 311 311 311 311 311 311 312 312 313 313 313 314 314 314 314 314 315 315 316 316 316 316 317 317 317 317 317 318 318 318 318 318 318 317 317 316 316 314 313 312 311 309 308 306 304 302 301 299 297 295 293 291 290 289 288 286 286 285 283 282 281 280 279 278 277 277 276 276 275 275 275 275 276 276 277 277 277
308 308 308 309 309 309 310 310 311 311 311 310 310 311 312 312 312 313 313 313 313 313 313 314 314 315 315 315 316 316 316 316 316 317 317 317 317 317 317 317 317 317 316 316 315 314 312 311 310 308 307 305 303 302 300 298 297 295 293 291 290 288 287 286 285 283 282 281 280 279 278 277 276 275 275 275 275 275 275 276 276 277 277 278 278
307 308 308 309 309 309 310 311 311 311 311 310 310 311 311 311 312 312 313 313 313 313 313 313 314 314 315 315 315 315 315 316 316 316 316 317 317 317 317 317 316 316 316 315 314 313 311 310 309 307 306 304 303 302 300 298 297 294 293 291 289 288 286 286 284 283 281 280 279 278 277 276 275 275 275 275 275 275 276 276 277 277 277 277 278
307 307 308 309 309 310 310 310 310 310 310 310 310 310 311 311 311 312 312 312 312 312 312 313 313 314 314 314 314 315 315 315 315 316 316 316 316 316 316 316 316 315 315 314 313 312 311 309 308 306 305 303 302 301 300 298 296 294 293 291 289 288 287 285 284 282 281 280 279 278 277 276 276 275 275 275 276 276 277 277 277 277 277 277 277
306 307 308 309 309 309 309 309 309 309 309 309 310 310 310 311 311 311 311 311 311 312 312 313 313 313 313 314 314 314 314 315 315 315 315 315 316 315 315 315 315 315 314 314 313 311 310 308 307 305 304 303 302 301 300 298 296 294 293 291 289 288 287 285 283 282 281 280 280 278 277 277 276 276 276 276 276 276 276 276 276 276 276 276 276
307 307 308 308 308 308 309 309 308 308 308 309 309 310 310 310 310 310 310 311 311 311 312 312 312 312 313 313 313 313 314 314 315 315 315 315 315 315 315 315 314 314 314 313 312 310 309 307 306 305 303 302 301 301 300 298 296 295 293 291 290 288 287 285 284 282 281 280 279 278 277 277 276 276 276 275 275 275 275 275 276 276 276 275 274
307 307 307 307 307 307 307 307 307 307 308 308 309 309 309 309 310 310 310 310 310 311 311 312 312 312 312 312 313 313 313 314 314 314 314 314 314 314 314 314 314 314 313 312 311 309 308 306 305 304 303 302 301 300 299 298 296 295 293 291 290 289 287 285 284 283 281 280 279 278 277 276 276 275 274 274 274 274 274 274 274 274 274 273 273
306 306 306 306 306 306 306 306 306 307 307 308 308 308 309 309 309 309 309 310 310 311 311 311 311 311 312 312 312 313 313 313 314 314 314 314 314 314 314 314 314 313 312 311 310 309 307 305 304 303 302 301 300 299 299 297 296 294 293 291 290 289 287 286 284 283 281 280 279 278 277 276 275 274 273 273 273 273 273 273 273 272 272 271 271
304 304 304 305 305 305 305 306 306 307 307 308 308 308 308 308 308 309 309 310 310 310 310 310 311 311 311 311 312 312 313 313 313 313 313 313 313 313 313 313 313 313 312 310 309 308 306 305 304 303 302 301 300 299 298 297 296 294 293 291 290 289 287 286 284 283 282 280 279 278 277 276 274 273 273 273 272 272 272 272 271 271 270 270 270
303 303 304 304 304 305 305 306 307 307 307 307 307 307 307 308 309 309 310 310 310 310 310 310 310 311 311 311 312 312 313 313 313 313 313 313 313 313 313 313 312 312 311 310 308 307 306 304 303 302 301 300 299 298 297 296 295 294 292 291 290 289 288 286 284 283 282 280 279 278 277 275 274 273 273 272 272 272 271 270 270 270 270 269 269
303 303 304 304 305 306 306 306 307 307 307 307 307 307 308 308 309 309 309 309 309 309 309 310 310 310 311 311 312 312 312 312 312 312 312 312 312 313 313 312 312 311 310 309 308 306 305 304 303 302 301 300 299 298 296 295 294 293 292 291 290 289 288 287 285 283 282 280 279 277 276 275 274 273 273 272 272 271 270 270 269 269 269 269 268
304 304 305 305 306 306 306 306 306 307 307 307 308 308 308 309 309 309 308 308 309 309 309 309 310 310 311 311 312 312 312 312 312 312 312 312 312 312 312 311 311 310 309 308 307 306 305 303 302 301 300 299 298 297 296 295 293 292 292 291 290 289 288 287 285 284 282 281 279 277 276 275 273 273 272 271 271 270 269 268 268 268 268 269 268
305 306 306 306 307 307 306 306 307 307 307 308 308 308 308 308 308 308 308 308 308 309 309 309 310 310 311 311 311 312 312 312 312 312 312 312 312 312 312 311 310 309 308 308 307 306 304 303 302 301 300 299 298 297 296 294 293 292 291 290 290 289 288 287 286 284 283 281 280 278 277 275 273 272 271 270 269 268 267 267 266 267 267 268 268
307 307 307 307 307 307 307 307 308 308 308 308 308 308 308 308 307 308 308 308 308 308 309 309 310 310 311 311 311 311 311 311 312 312 312 312 312 311 311 310 309 309 308 307 306 305 304 303 302 301 299 298 298 297 295 294 293 291 291 290 290 289 288 287 285 284 283 281 280 278 276 275 273 271 270 269 267 266 265 265 265 265 266 267 267
308 308 307 307 307 308 308 309 309 308 308 308 308 307 307 307 307 307 308 308 308 308 309 309 310 310 310 311 311 311 311 311 312 312 312 312 311 310 310 309 309 308 308 307 306 305 303 302 301 300 299 298 298 297 295 294 292 291 290 290 290 289 288 287 285 284 282 280 279 277 275 274 272 271 269 268 266 265 265 265 265 265 265 266 266
308 308 308 308 309 309 309 308 308 308 307 307 307 307 307 307 307 307 307 307 308 309 309 309 310 310 310 310 310 311 311 311 311 311 311 311 310 310 309 309 308 308 307 307 306 305 303 302 300 299 299 298 297 296 295 293 292 291 290 290 289 289 288 286 285 283 281 280 278 277 275 273 272 270 269 267 266 265 265 265 265 265 265 265 265
309 309 309 309 309 309 308 308 307 307 307 307 307 307 307 307 307 307 307 308 308 309 309 309 310 310 310 310 310 311 311 311 311 311 310 310 309 309 309 308 308 307 307 306 305 304 303 301 300 299 299 298 297 296 294 293 292 291 290 290 289 289 288 286 284 283 281 280 278 276 274 272 271 270 269 268 267 266 265 265 264 264 264 264 263
310 310 309 309 308 308 307 307 307 307 307 307 307 307 307 307 307 307 308 308 309 309 309 309 310 310 310 310 311 311 311 311 310 310 309 309 309 309 308 308 308 307 307 306 305 304 302 301 301 300 299 298 297 295 294 293 292 291 291 290 289 289 287 286 284 282 281 279 277 275 273 271 269 268 268 267 266 265 265 264 263 263 262 261 262
310 309 308 308 307 307 307 307 307 307 307 307 307 307 307 307 307 308 308 309 309 309 309 309 310 310 310 311 311 311 310 310 310 309 309 309 309 309 308 308 307 307 306 305 304 303 302 301 301 300 299 298 297 295 294 293 292 291 291 290 289 288 286 284 283 281 279 278 276 274 272 271 269 267 266 265 264 263 263 262 261 260 259 259 258
308 308 307 307 307 307 307 307 307 307 307 306 306 307 307 307 308 308 308 309 309 309 309 310 310 310 311 311 311 310 310 309 309 309 309 309 309 309 308 308 307 306 305 304 303 303 302 301 301 300 299 298 296 295 294 293 292 291 290 289 288 286 284 282 280 279 277 275 274 273 272 270 268 266 264 262 261 260 260 259 258 257 256 254 251
308 307 307 307 307 307 307 307 307 306 306 306 307 307 307 307 308 308 308 309 309 310 310 310 311 311 311 310 310 310 309 309 309 309 309 309 309 308 308 307 306 306 305 304 303 303 302 301 300 300 299 298 296 295 294 292 291 290 289 288 286 283 282 280 278 277 275 274 273 272 270 269 267 264 262 260 259 257 256 255 254 253 250 248 247
308 308 308 307 307 307 306 306 306 306 306 307 307 307 307 308 308 308 309 309 310 310 310 311 311 310 310 310 310 309 309 309 310 310 310 309 309 308 307 307 306 305 304 304 303 302 301 301 300 300 298 297 295 294 293 291 290 289 288 286 284 281 280 278 277 275 274 273 271 269 267 265 264 261 259 257 254 252 251 250 249 248 246 246 247
308 308 307 307 306 306 306 306 306 306 307 307 307 307 308 308 308 309 310 310 310 310 310 310 310 310 310 309 309 309 309 310 310 310 310 309 309 308 307 306 306 305 304 303 303 302 301 301 301 300 298 296 294 293 291 290 289 288 287 285 282 280 278 277 276 276 274 273 270 266 263 260 257 255 253 251 248 246 245 245 244 244 244 243 242
308 307 307 306 306 306 306 307 307 307 307 307 308 308 308 309 309 310 310 310 310 310 310 310 310 310 310 309 309 309 310 310 310 310 310 309 309 308 307 307 305 304 303 302 302 301 301 301 300 299 297 295 293 292 290 289 289 288 286 283 280 278 277 277 276 275 273 271 267 262 256 252 250 248 246 244 241 241 239 239 239 239 237 235 233
307 306 306 306 307 307 307 307 307 308 308 308 309 309 309 310 310 311 310 310 310 310 310 310 310 310 309 310 310 310 310 310 310 310 310 309 308 308 307 306 305 304 303 303 302 302 301 300 298 297 295 293 292 291 290 290 288 286 283 281 278 277 276 276 275 273 270 266 261 255 251 247 244 241 240 238 236 234 233 232 231 229 227 225 224
307 307 307 307 307 307 308 308 308 308 309 309 310 310 311 311 311 310 310 310 310 310 310 310 310 310 310 310 310 311 310 310 310 310 310 309 308 307 306 305 304 304 304 303 303 302 301 300 298 295 293 291 291 291 290 289 286 283 281 279 278 277 276 274 271 268 264 259 254 250 246 242 240 237 234 231 228 225 223 222 221 221 220 219 217
307 308 308 308 308 308 308 309 309 310 310 311 311 311 311 311 310 310 310 310 310 311 310 310 310 310 311 311 311 311 311 310 310 310 309 308 307 306 305 304 304 303 303 303 302 302 301 299 297 294 292 291 290 289 288 286 284 282 280 279 278 276 272 268 263 258 254 250 246 243 241 237 232 228 224 221 218 216 214 214 214 214 212 210 209
308 308 308 308 309 309 310 310 311 311 311 311 311 311 311 311 311 311 311 311 311 311 311 311 311 311 312 312 311 311 310 310 310 309 309 308 307 306 305 304 303 303 303 303 302 301 300 298 296 294 292 291 289 287 286 284 283 281 280 277 274 270 264 258 252 248 244 240 236 233 230 224 219 215 213 210 208 207 208 207 206 203 200 199 197
308 308 309 310 311 311 311 312 312 312 312 312 312 311 311 311 311 311 312 312 312 312 312 312 312 312 312 312 311 310 310 309 309 308 308 307 306 305 304 304 304 304 304 303 302 300 299 297 294 293 291 290 288 286 285 283 282 279 276 272 267 261 255 249 244 239 234 228 222 217 213 209 205 204 203 202 202 201 200 196 192 189 188 184 177
309 310 311 312 312 312 312 312 312 312 312 312 312 312 312 312 312 312 312 313 313 313 313 313 313 313 312 311 310 309 309 309 308 308 307 306 306 305 305 305 305 305 305 303 301 299 297 296 294 292 290 289 287 285 283 281 278 274 271 266 260 254 247 241 235 229 221 213 207 202 199 196 195 195 196 196 194 190 185 181 179 177 170 161 154
312 312 313 313 313 313 313 313 313 313 313 313 312 313 313 313 313 313 313 313 314 314 314 313 313 312 311 310 309 309 309 308 308 307 307 307 307 307 307 307 306 306 305 303 300 298 297 295 294 292 290 288 285 283 280 277 273 269 264 258 251 244 236 228 220 213 205 199 192 190 189 187 187 187 187 184 179 175 172 170 165 156 149 147 149
313 313 313 313 313 313 313 313 313 313 313 313 314 314 314 314 313 314 314 314 314 314 313 313 312 312 311 310 310 309 309 308 308 308 308 308 308 308 308 308 307 306 304 301 299 298 297 296 294 291 288 285 281 277 274 270 265 260 253 245 236 227 216 207 201 195 190 185 182 182 182 180 178 176 174 171 167 164 160 153 146 143 145 149 152
314 314 313 313 313 313 313 314 314 314 314 314 315 315 314 314 314 314 315 315 314 314 313 312 312 311 311 310 310 310 309 309 309 309 309 309 309 309 309 308 307 305 303 301 300 299 298 296 293 289 284 279 274 269 264 259 253 244 234 224 215 206 198 190 184 181 179 178 177 175 172 169 167 166 164 161 157 151 144 140 141 144 149 151 150
314 314 314 313 313 313 314 314 314 315 315 315 315 314 314 315 315 315 315 315 314 313 313 312 312 312 311 311 310 310 310 310 311 311 311 311 310 310 309 307 306 304 303 302 302 301 298 294 288 283 276 270 265 260 252 243 231 219 207 200 193 187 182 176 173 173 172 171 167 163 160 159 160 158 154 149 143 139 138 140 144 148 149 146 143
314 314 314 314 314 314 314 315 315 315 315 315 314 315 315 316 316 315 315 314 314 313 313 313 313 312 311 311 311 311 312 312 312 312 312 312 311 309 308 307 306 305 305 304 303 299 294 287 281 274 268 261 254 245 230 216 202 191 183 180 176 172 169 167 166 165 162 158 155 155 155 155 152 147 141 137 136 138 141 145 146 144 141 139 139
314 314 314 314 314 314 315 315 316 315 315 315 315 316 317 317 316 315 315 315 314 314 314 313 313 312 312 312 312 313 313 313 313 313 313 312 311 309 308 307 308 308 307 304 299 293 287 280 273 266 257 247 233 214 194 183 174 168 167 165 164 162 160 158 156 153 152 152 153 153 150 145 140 136 134 136 139 142 144 143 139 136 136 138 140
315 315 315 314 314 315 316 316 316 315 315 315 316 317 318 317 316 315 315 315 315 315 314 314 314 313 313 313 313 314 315 315 314 314 313 312 310 309 309 310 311 310 306 300 293 287 281 273 264 252 231 202 180 162 158 157 158 159 159 158 156 153 151 148 148 149 150 151 148 144 138 134 133 134 136 140 142 142 139 136 134 134 136 137 135